Wind_Speed
53 54 55 57 58 57 55 54 53 52 52 52 53 54 56 57 59 61 62 62 62 63 64 64 63 62 61 60 58 56 55 55 56 56 56 56 57 58 59 58 55 51 49 50 49 47 47 50 51 49 48 49 48 49 50 48 47 47 46 46 43 43 45 45 49 59 68 73 64 46 42 44 37 39 52 63 61 55 61 64 55 51 53 50 51
52 54 55 57 56 54 53 52 51 51 51 52 53 54 56 58 59 61 62 63 64 65 65 65 63 62 60 58 57 55 54 54 55 56 56 56 57 58 59 58 53 49 49 50 49 46 46 50 51 49 50 51 48 47 50 51 50 49 48 49 48 46 47 47 47 54 62 71 65 46 38 41 39 39 49 62 66 63 65 66 57 51 49 51 55
53 54 55 56 54 53 52 51 51 51 51 51 53 55 57 58 60 62 64 65 66 66 66 64 62 60 59 57 55 54 53 53 54 56 56 56 58 59 59 56 50 47 47 48 48 46 45 47 49 49 51 55 52 47 48 52 52 49 48 50 51 50 49 48 48 51 59 67 66 49 37 39 40 40 46 57 67 69 65 67 65 56 51 57 63
53 54 55 54 52 52 51 50 50 50 51 52 54 56 58 59 61 64 66 67 67 66 64 62 60 58 57 55 54 53 53 54 54 55 56 57 59 59 58 54 47 45 46 46 46 44 43 45 47 49 53 58 56 51 50 53 52 48 45 46 49 49 50 51 49 50 56 65 69 53 37 39 40 39 44 51 63 71 66 64 65 58 54 59 63
53 54 53 52 51 50 50 49 50 50 51 53 55 57 59 61 63 66 66 66 65 63 62 60 58 56 54 53 53 53 53 54 55 55 56 58 59 58 55 50 45 43 44 44 44 43 42 43 46 49 55 59 57 53 51 53 53 50 45 43 45 45 48 52 51 51 54 63 71 56 38 39 39 37 46 51 57 67 67 65 66 60 57 60 61
52 53 52 50 50 49 49 49 49 50 52 54 56 58 60 63 65 66 65 65 63 62 60 58 55 54 53 53 53 53 53 54 55 56 57 59 58 55 51 46 43 43 44 43 43 42 41 42 45 48 55 60 58 54 52 52 52 52 49 44 42 41 45 49 51 52 55 64 73 59 39 39 40 38 51 57 55 62 66 65 65 62 59 61 65
51 51 49 49 49 48 48 49 49 51 53 55 57 60 62 64 65 65 64 63 62 60 58 55 53 53 52 53 53 53 54 54 56 58 58 58 57 52 46 43 42 42 44 43 42 41 40 41 45 47 52 59 60 56 54 53 52 52 52 47 43 41 44 47 48 51 57 66 73 61 42 40 40 40 55 61 57 61 65 64 64 62 63 67 68
49 48 48 48 48 48 47 48 49 52 54 56 59 61 63 63 64 64 63 62 60 58 55 53 53 53 53 53 53 54 55 55 57 59 58 56 54 48 43 42 42 41 43 44 43 42 41 41 45 47 49 57 61 58 55 54 52 51 51 49 45 43 45 46 47 51 57 67 73 61 44 41 41 42 57 66 62 64 66 66 67 66 68 71 68
47 46 47 47 46 46 46 47 50 52 55 57 60 61 63 63 63 63 61 59 57 55 53 53 53 54 54 54 54 55 55 56 58 59 57 54 50 45 41 41 41 42 44 45 45 44 43 42 45 48 48 53 60 61 56 54 52 50 49 48 45 44 45 46 47 51 57 66 75 67 49 44 45 45 59 70 67 66 67 68 70 70 70 71 66
45 45 45 45 45 45 46 48 50 53 56 58 60 61 62 62 62 62 59 57 55 53 53 53 54 55 55 55 55 55 56 57 59 57 55 51 47 43 41 39 40 42 44 45 46 46 45 44 45 48 49 50 57 62 59 54 53 52 51 48 45 44 46 46 46 51 56 64 76 73 55 47 48 48 61 73 69 67 69 71 74 72 71 71 66
43 43 43 43 43 44 46 48 51 53 56 59 60 61 61 62 61 60 58 55 53 53 53 54 55 55 55 55 55 56 58 59 59 56 52 47 44 43 40 39 40 42 44 45 46 46 45 44 45 48 49 50 55 60 59 56 53 51 50 48 47 46 47 47 44 46 54 63 74 74 60 50 49 49 63 75 72 70 73 75 77 75 73 73 69
41 41 41 41 41 43 45 48 51 54 57 58 60 61 61 61 60 58 55 54 53 53 54 55 56 56 56 56 56 58 60 60 58 55 48 43 42 41 39 38 41 44 44 43 43 43 44 44 44 47 49 49 52 58 60 57 54 51 49 48 48 47 49 50 44 42 50 59 69 72 63 52 50 55 69 79 76 73 75 75 76 74 73 76 75
39 39 39 38 40 42 45 48 51 54 57 58 59 60 60 60 58 56 54 53 53 54 55 55 56 57 57 58 59 60 62 60 57 53 45 40 39 39 38 38 42 45 44 41 41 40 41 43 44 46 48 48 51 57 61 59 55 53 53 51 50 49 51 53 47 41 46 53 62 68 62 54 54 62 75 82 78 75 75 74 74 72 72 74 75
37 36 36 37 39 41 44 48 52 55 57 58 59 59 59 58 56 54 53 53 53 54 55 56 57 58 59 60 61 63 62 59 55 50 42 38 37 35 36 39 42 43 42 41 40 37 37 41 42 45 47 47 49 55 61 62 58 58 59 57 54 51 53 55 50 43 43 50 58 62 56 52 57 66 77 84 80 75 75 73 72 70 69 69 70
34 33 33 35 38 40 44 48 52 55 57 58 58 58 58 56 55 53 52 53 54 55 56 57 58 59 61 62 64 65 62 57 52 46 40 36 33 33 35 39 42 42 42 42 40 34 32 38 41 43 46 46 48 53 59 61 59 59 63 62 57 54 55 56 51 45 45 50 57 60 55 53 58 66 78 85 82 75 71 67 67 68 68 68 70
31 30 32 35 37 40 44 49 53 56 57 57 57 57 57 55 53 52 52 52 54 55 56 57 58 60 62 64 66 65 60 54 48 42 37 33 31 32 36 39 40 41 42 42 39 31 28 34 38 41 44 44 46 51 56 58 59 61 64 64 59 56 56 56 50 46 47 53 58 61 59 57 59 67 80 86 83 77 73 69 70 72 72 72 71
28 29 31 34 37 41 45 49 54 56 57 57 57 56 56 54 52 51 52 52 53 55 56 57 58 60 62 64 65 64 59 51 43 37 34 31 31 33 36 38 39 41 41 39 35 29 26 30 35 39 41 42 43 48 55 58 60 61 63 62 59 57 55 53 48 45 49 56 61 64 65 65 66 70 81 87 82 79 80 80 78 76 74 74 73
27 29 31 34 38 41 46 50 54 57 57 56 56 56 54 52 51 51 51 52 53 55 56 57 58 59 61 62 63 62 57 49 39 33 31 30 31 34 37 38 39 40 40 37 31 26 24 27 33 36 38 39 39 45 54 60 61 60 58 57 57 55 52 48 44 45 50 58 65 66 68 73 73 72 81 88 82 78 81 81 78 76 75 75 73
26 28 31 35 38 42 46 50 54 56 57 56 55 55 53 51 50 50 51 52 53 55 56 56 57 58 58 58 59 58 55 47 37 30 29 30 31 34 37 38 38 38 37 35 29 24 22 24 29 33 35 35 35 40 47 55 60 59 54 53 55 52 48 43 42 44 50 58 66 67 67 74 75 71 79 88 82 77 78 77 77 78 77 74 72
25 28 32 35 39 43 47 51 54 56 56 55 54 54 53 51 50 50 51 52 53 55 56 56 57 57 56 55 55 54 50 44 36 30 29 29 31 33 36 37 37 36 35 34 29 24 22 23 26 30 33 32 31 34 40 48 55 56 52 53 53 48 44 41 40 43 47 55 65 66 64 69 71 69 77 85 81 77 77 77 78 80 77 74 73
25 28 32 35 39 43 47 51 54 55 56 55 54 53 53 51 50 50 51 52 53 55 55 56 56 56 55 52 50 49 46 41 35 30 29 29 29 31 34 36 36 35 34 33 29 25 22 23 25 27 30 31 29 30 36 43 49 52 52 52 51 46 42 40 38 39 42 51 63 66 65 67 67 68 77 82 78 76 76 76 78 80 78 75 71
25 28 32 36 39 43 47 50 53 55 55 54 53 52 52 51 50 50 52 53 54 55 55 56 56 56 55 52 48 45 43 39 34 30 29 29 29 30 32 35 35 35 34 32 28 25 22 23 24 25 28 30 29 28 33 40 47 50 51 51 49 45 42 38 35 35 39 49 60 64 66 68 66 68 76 78 74 73 74 73 76 78 78 73 65
25 29 32 35 39 44 47 50 52 54 54 53 52 52 52 51 50 51 52 53 55 55 55 56 56 56 55 53 48 44 41 37 33 30 29 30 29 29 31 32 33 34 33 31 28 25 24 23 23 24 27 29 29 29 32 39 45 49 50 49 46 44 41 36 33 33 38 48 58 62 65 68 67 69 75 75 71 72 74 73 74 75 75 70 61
25 29 32 35 39 43 47 50 52 54 54 53 52 51 51 51 51 51 52 54 55 56 55 55 56 56 56 54 49 46 43 39 33 29 28 29 30 30 30 30 32 33 32 30 27 25 25 25 22 24 27 28 28 30 33 38 43 47 48 47 46 44 40 35 31 31 38 48 57 61 64 67 67 69 72 70 68 70 74 74 72 70 68 67 65
25 29 31 35 39 43 47 49 51 53 53 53 52 50 50 51 51 51 52 54 55 56 55 55 56 57 56 54 50 47 46 42 33 28 26 26 28 29 29 29 30 32 32 28 25 24 25 26 24 24 27 27 27 29 33 37 41 44 45 45 46 43 39 33 29 31 39 48 57 63 66 66 66 66 65 63 62 66 72 75 73 70 67 67 69
25 28 31 35 39 43 46 48 50 52 52 52 51 50 49 50 50 51 52 53 54 56 56 55 56 56 55 53 50 47 47 45 36 27 24 24 25 26 28 28 28 29 29 27 25 23 23 25 24 22 23 24 25 28 31 34 38 41 43 44 45 42 37 31 29 33 41 49 58 66 67 65 65 66 64 61 59 62 68 72 72 71 68 65 66
25 27 30 35 39 42 45 47 49 50 51 51 50 49 48 49 49 50 51 52 54 56 56 56 56 56 55 54 50 47 47 47 40 29 23 22 22 22 25 27 27 26 24 24 24 23 21 22 21 19 19 20 24 26 29 32 36 39 41 43 44 41 35 31 30 34 41 50 59 65 65 63 65 66 63 60 57 59 65 69 69 69 68 66 67
24 27 30 34 38 41 44 46 48 49 50 50 49 48 48 48 49 50 51 52 53 55 56 56 56 56 56 56 53 49 46 45 42 34 27 22 20 20 22 25 26 25 22 20 21 21 20 20 18 16 16 18 21 24 27 30 34 38 40 41 42 39 34 31 32 36 41 49 58 63 63 63 66 64 59 58 57 59 63 66 66 67 70 71 71
24 26 30 34 38 41 43 45 47 49 50 49 48 47 47 47 48 49 49 51 52 53 53 54 56 56 55 55 55 54 50 46 42 37 32 26 21 19 19 22 25 25 21 19 19 18 18 18 16 13 14 16 18 21 25 29 32 35 37 39 39 37 33 32 35 38 41 47 56 62 62 64 67 65 60 59 60 61 63 64 62 64 70 73 72
23 26 29 33 37 39 42 44 46 48 49 49 47 46 46 47 47 46 47 48 50 50 50 51 53 54 53 52 52 52 51 49 45 39 32 27 22 19 18 20 23 22 19 17 17 16 14 16 16 14 12 14 16 19 23 27 31 33 34 36 37 35 33 33 37 40 42 46 54 60 61 62 66 65 60 57 59 62 64 63 59 60 66 72 73
22 25 29 32 35 38 40 42 45 47 49 49 47 45 45 45 46 45 44 45 47 48 48 48 49 51 51 51 50 49 47 46 45 40 34 28 23 18 16 17 18 19 17 15 15 14 12 14 16 15 13 15 17 19 22 26 29 31 33 35 35 33 33 34 37 41 44 47 51 57 59 60 62 62 59 56 59 63 66 64 58 55 58 66 72
22 25 28 31 34 37 39 41 44 47 48 49 48 46 44 44 44 43 42 42 43 45 46 46 46 47 48 49 49 49 46 45 45 43 38 31 25 19 15 14 15 16 16 14 13 13 12 11 13 14 14 15 18 20 22 25 28 29 32 34 33 31 32 34 37 41 45 48 51 56 59 59 59 58 58 57 58 62 66 66 61 54 51 57 65
21 24 28 31 33 35 37 40 43 45 47 48 48 46 44 43 43 43 42 41 40 41 43 44 44 45 46 47 47 47 46 45 45 46 43 37 30 24 16 12 13 15 16 14 12 12 11 10 10 12 14 15 17 18 21 24 27 30 32 33 32 30 30 32 35 40 44 48 52 56 59 60 58 57 57 57 57 59 63 66 64 58 52 53 58
21 24 27 30 32 34 36 39 42 44 46 48 48 46 45 44 43 43 43 42 39 38 39 41 42 43 44 45 45 44 44 45 46 48 47 43 37 31 22 15 12 13 16 15 12 10 10 10 9 10 13 16 18 19 21 23 26 30 33 34 32 29 28 31 34 38 42 46 52 56 58 59 59 57 56 56 57 56 58 61 63 60 55 54 56
21 23 26 29 31 33 35 38 40 43 45 46 47 46 44 43 43 43 43 43 42 41 40 40 41 42 42 42 43 42 41 43 44 45 47 45 40 34 28 21 15 12 13 15 13 10 10 10 9 9 12 16 19 21 22 23 26 30 33 34 31 28 26 29 33 37 40 44 50 55 57 57 58 58 57 58 59 58 57 58 60 58 55 56 57
20 23 25 28 30 32 34 37 39 42 44 45 45 45 44 43 43 42 42 42 42 41 40 39 39 39 39 39 40 40 39 40 41 41 42 42 39 34 28 21 15 10 9 12 14 13 11 10 10 11 12 15 19 22 23 23 25 29 33 34 31 26 24 28 32 36 39 42 47 52 56 56 57 59 60 61 61 59 58 58 58 56 55 57 58
20 22 25 27 29 31 33 36 38 40 42 43 44 44 43 42 41 41 41 41 41 40 40 39 38 37 37 37 38 38 38 38 37 35 34 34 34 33 30 25 18 12 8 9 12 14 12 11 12 12 13 15 18 21 23 23 25 28 32 35 32 26 23 26 30 34 37 41 44 49 53 54 55 57 59 60 59 58 58 58 57 55 57 59 58
20 22 24 26 28 30 32 35 37 39 40 42 42 42 41 40 41 40 40 40 40 39 39 39 39 38 38 38 37 37 37 35 33 32 32 34 34 34 32 29 24 18 11 8 10 13 14 14 13 13 14 15 17 20 23 24 24 27 31 34 35 30 24 23 28 32 35 38 42 47 50 52 53 54 55 57 56 56 56 57 56 56 58 60 59
20 21 23 25 27 29 32 34 36 37 39 40 41 41 40 39 39 39 39 39 39 38 38 38 38 38 38 38 38 37 38 38 37 36 35 35 35 34 31 28 26 23 17 11 9 11 14 15 15 15 15 16 17 20 23 24 25 26 29 33 36 35 29 24 25 29 33 36 40 44 48 51 53 52 53 56 55 53 54 56 56 56 58 58 58
20 21 22 24 27 29 31 34 35 37 38 39 39 39 39 39 38 38 38 37 37 37 37 37 37 37 37 38 39 38 39 39 39 38 37 35 34 34 33 29 26 24 21 16 12 11 12 15 17 18 19 19 19 20 23 26 26 27 28 31 35 38 35 28 24 26 30 34 37 41 46 50 52 51 52 55 56 53 52 54 54 54 55 57 57
20 20 22 24 26 28 31 33 35 36 37 38 38 38 38 38 38 37 36 36 36 36 36 35 35 35 35 36 37 37 37 38 37 37 36 35 35 35 35 33 30 27 23 19 15 12 11 12 16 19 21 21 21 21 23 26 28 28 29 30 33 37 39 34 27 24 27 32 35 39 43 48 51 53 53 54 55 53 52 53 51 49 49 53 56
20 21 22 24 26 28 31 32 34 35 36 37 37 37 37 37 36 36 35 34 34 34 34 33 33 33 33 33 34 34 34 35 34 34 34 34 33 33 34 34 33 32 28 24 19 16 13 11 12 15 18 20 22 22 23 26 29 29 29 30 32 36 40 38 31 25 26 30 33 37 42 46 51 53 54 54 54 53 53 53 51 48 46 48 51
20 21 22 24 26 28 30 32 33 35 35 36 36 35 35 35 35 35 34 33 32 32 31 31 30 30 30 31 31 31 31 31 31 32 32 33 32 32 33 33 33 32 31 28 23 20 17 14 11 10 12 14 17 19 21 25 28 30 30 30 31 34 38 39 34 27 27 30 32 34 40 46 51 54 55 55 55 54 54 54 53 51 49 49 50
20 21 22 24 26 28 30 31 32 33 34 34 34 34 33 33 33 33 32 32 31 30 30 29 29 28 28 28 28 29 29 29 30 30 31 32 32 32 32 31 30 30 30 28 26 22 19 16 13 10 8 9 11 14 17 21 25 29 30 29 30 32 36 39 36 29 28 31 33 34 36 43 51 55 56 56 55 54 54 53 52 52 52 53 54
20 21 23 24 26 28 29 30 31 32 33 33 32 32 32 31 31 31 30 30 30 29 29 28 28 27 27 27 27 27 28 28 29 30 30 31 31 32 32 31 30 29 28 28 26 25 22 18 14 11 8 6 7 10 13 16 21 25 28 28 28 29 33 37 37 31 27 29 34 35 35 39 47 54 57 57 55 54 54 53 52 52 53 55 57
20 22 23 24 26 27 28 29 30 31 31 31 31 30 30 29 29 29 28 28 28 28 27 28 27 26 26 26 26 26 27 27 28 29 29 30 30 31 31 31 30 28 27 27 25 25 24 22 18 13 9 7 5 5 8 12 16 21 25 26 26 26 29 33 35 32 28 28 32 35 35 37 42 49 55 56 55 54 54 54 53 52 52 55 58
20 22 23 24 26 27 28 28 29 30 29 29 29 28 28 27 27 26 26 27 27 26 26 26 26 25 25 25 25 25 26 26 27 28 28 29 29 29 30 30 30 28 27 26 24 23 23 23 22 18 12 9 7 5 5 8 12 16 20 22 24 25 27 30 31 30 28 28 30 33 35 36 37 42 48 51 51 52 53 54 54 53 53 54 56
21 22 23 24 25 26 27 27 28 28 28 27 27 26 25 25 25 24 24 25 25 25 25 25 25 24 24 24 24 25 25 25 26 27 27 27 28 28 28 29 29 28 27 27 25 23 22 23 24 22 17 12 9 7 5 5 7 11 15 18 20 22 25 28 29 29 28 27 29 31 33 34 35 37 41 45 47 48 50 52 54 54 53 54 56
20 21 22 23 24 25 25 26 26 26 26 26 25 24 23 23 23 23 23 23 23 23 23 23 23 23 22 22 23 24 24 24 25 25 26 26 27 28 28 28 28 28 27 27 27 26 24 23 24 24 21 17 13 10 7 5 4 7 10 13 15 18 22 25 27 27 27 28 29 30 31 32 33 34 37 40 43 45 47 48 50 52 52 53 55
20 21 21 22 23 24 24 24 25 25 24 24 23 22 21 21 21 21 21 21 21 21 21 21 21 21 20 21 21 22 23 23 24 24 25 26 27 27 27 27 27 27 27 28 28 29 27 25 25 25 24 21 18 15 12 8 4 3 4 6 9 13 18 22 25 26 28 29 30 30 31 32 33 34 35 38 41 44 46 47 48 49 50 51 52
19 20 20 21 22 23 23 23 23 23 23 22 21 20 20 19 19 19 19 19 19 18 18 19 19 19 19 19 20 21 22 24 24 25 25 26 26 27 27 27 27 27 28 28 28 29 28 28 27 27 26 23 21 20 19 16 13 10 7 3 3 7 12 16 20 24 26 28 29 30 31 32 33 35 36 38 40 43 45 46 48 49 50 50 51
Wind_Direction
286 288 291 296 300 303 306 308 309 309 309 309 308 308 309 310 312 313 314 314 315 314 314 314 313 312 311 309 308 306 303 303 302 301 302 302 302 303 304 303 298 289 282 281 282 278 268 255 249 244 234 232 241 241 235 236 240 242 240 237 237 237 235 240 243 240 231 223 226 225 208 202 208 219 218 211 207 204 192 183 182 187 192 196 197
286 289 294 298 301 304 306 308 309 309 308 307 307 308 309 312 313 314 315 315 315 315 314 313 312 311 310 308 307 305 303 302 302 302 302 302 303 304 304 301 295 285 280 281 282 279 268 255 247 243 233 229 237 243 240 238 237 239 242 239 237 235 234 236 239 241 234 224 224 226 213 204 206 216 221 213 208 206 202 202 203 201 206 212 209
288 292 296 300 302 304 307 308 308 308 307 306 307 308 311 313 314 315 315 315 316 315 314 313 311 309 308 307 306 304 303 303 303 303 302 303 304 304 303 300 291 282 279 281 283 280 269 255 246 240 232 227 233 238 240 242 240 239 241 241 238 236 234 235 236 239 235 225 221 224 217 207 205 212 220 216 210 209 210 214 214 211 216 216 209
290 294 298 300 303 305 307 308 308 307 307 306 308 310 313 315 316 316 316 316 316 316 314 312 310 308 307 306 305 305 304 304 304 304 304 304 304 304 302 297 287 278 278 279 281 281 270 253 244 239 230 226 231 234 237 244 243 240 242 243 240 238 235 235 236 238 235 224 219 222 218 207 205 211 218 217 213 211 213 217 215 216 220 214 206
293 296 298 301 304 306 307 308 308 307 307 308 310 313 315 316 317 317 317 317 317 317 315 312 310 309 308 307 306 306 306 306 305 305 305 305 305 303 299 293 284 277 276 276 278 280 269 252 243 239 231 226 230 231 234 243 245 241 242 243 241 239 237 237 237 239 235 223 219 222 218 205 202 213 222 219 212 211 213 217 216 217 218 212 207
295 297 299 302 305 307 307 307 307 307 308 310 313 315 317 318 318 318 318 318 318 317 315 314 312 311 309 308 308 308 308 307 307 307 306 306 305 302 295 287 280 276 275 275 276 277 269 252 243 239 232 227 229 230 231 239 245 242 241 243 244 241 238 238 239 239 233 222 219 221 218 203 197 210 222 218 210 208 210 214 214 215 214 207 203
295 297 300 304 306 306 307 307 307 308 310 314 316 318 319 319 319 319 319 319 319 318 317 316 314 312 311 310 310 310 310 309 309 308 307 307 305 299 289 280 277 276 275 275 274 274 269 253 243 240 234 228 229 230 231 236 244 245 243 244 245 243 240 238 238 238 230 221 219 220 216 202 194 207 217 213 209 210 210 209 208 209 207 201 198
295 298 302 305 306 306 307 307 308 311 314 317 318 319 320 320 320 319 320 320 319 319 318 317 315 313 313 313 312 312 312 311 310 309 308 307 303 295 284 277 275 275 275 275 273 272 268 254 243 240 235 230 229 230 232 236 241 245 244 243 243 242 240 236 234 234 228 220 217 218 216 202 194 206 213 207 205 210 211 208 205 204 201 197 196
296 301 304 305 305 306 307 308 311 314 317 319 320 320 321 320 320 320 320 320 320 320 319 318 317 316 316 315 314 314 313 312 311 310 309 306 301 292 282 273 272 275 277 276 273 270 267 256 244 240 238 234 230 230 232 235 239 242 242 241 240 238 237 232 229 231 228 221 217 218 220 207 196 203 210 205 204 207 208 206 204 203 199 194 195
299 302 304 305 305 306 307 311 314 317 320 321 321 322 321 321 321 321 321 322 321 320 320 319 318 318 317 316 316 315 315 314 313 312 309 305 300 292 282 271 271 278 280 278 273 267 263 257 247 240 239 237 233 230 231 233 236 238 238 238 237 235 233 229 226 228 228 223 218 219 223 213 198 203 210 206 203 204 203 202 202 200 196 194 195
301 303 304 304 305 307 310 314 318 321 322 324 323 323 322 322 323 323 323 323 322 321 321 320 320 320 319 318 318 317 316 316 315 313 309 303 298 293 283 271 273 281 282 280 276 267 259 255 248 240 238 238 235 231 231 231 231 231 235 236 234 234 231 225 222 224 225 223 220 219 223 215 201 204 211 206 202 202 201 200 201 200 199 199 197
302 303 303 304 306 309 314 318 322 324 326 326 325 324 324 324 324 324 324 323 323 323 323 322 322 321 320 320 319 319 319 318 317 314 308 302 298 292 281 273 278 284 283 284 284 273 258 250 245 239 237 237 234 231 229 228 227 228 233 236 235 235 231 222 218 218 219 221 221 220 223 220 206 205 209 205 201 201 200 200 205 206 206 207 205
301 302 302 304 308 313 318 322 326 328 328 327 326 326 326 326 326 325 325 325 325 324 324 324 324 323 323 322 321 321 321 320 318 313 307 301 296 287 276 275 282 285 286 290 292 280 260 248 242 237 236 236 233 229 226 226 227 230 234 237 238 236 230 222 218 216 214 218 221 221 224 223 210 205 208 206 203 203 203 203 207 209 210 212 212
300 301 302 307 312 317 323 327 330 331 330 329 328 328 328 328 327 327 327 327 326 326 326 326 326 325 324 324 323 322 322 321 317 312 306 299 292 281 274 279 286 288 290 296 298 286 261 246 239 234 233 234 232 228 225 226 229 232 235 238 239 237 231 223 219 217 211 211 217 219 220 217 208 205 208 209 207 207 207 207 208 210 210 212 214
298 300 304 310 315 321 327 331 333 333 332 330 330 330 330 329 329 328 328 329 328 328 329 329 328 327 325 325 324 323 322 320 315 309 303 295 286 277 275 282 288 290 294 300 302 291 263 244 238 232 230 230 230 228 225 226 230 233 236 236 237 237 233 225 220 217 210 207 212 216 213 206 204 206 209 211 211 211 212 212 211 209 207 208 212
298 301 307 313 319 326 331 334 335 335 334 333 332 332 332 331 330 329 329 330 331 331 331 331 330 328 327 326 324 322 322 320 313 306 300 291 282 275 277 284 288 290 294 299 302 294 266 244 237 233 229 229 230 227 225 225 227 232 234 234 235 236 232 225 222 217 210 206 211 215 210 202 201 206 210 212 213 212 213 213 211 208 204 205 207
299 304 311 317 323 329 332 334 335 336 335 335 334 334 333 332 331 331 331 332 333 332 332 332 331 329 328 326 324 322 321 319 312 303 296 288 281 277 280 285 287 289 294 299 300 294 271 247 238 234 231 231 231 228 226 226 228 231 232 231 234 234 228 223 223 216 209 208 212 214 210 203 198 202 208 213 213 211 211 212 211 208 206 205 205
300 307 314 320 326 330 333 334 336 337 337 336 335 335 334 333 332 332 332 334 334 333 333 332 331 330 330 328 324 322 321 320 312 300 292 287 281 279 281 284 286 290 298 304 301 290 273 252 241 236 234 234 235 231 227 226 229 231 230 230 232 230 223 221 222 215 209 211 213 212 208 202 197 198 206 213 214 212 212 213 212 210 207 206 205
302 309 316 323 328 331 333 335 337 338 338 337 337 336 335 334 333 333 334 335 335 334 333 333 332 333 334 331 327 324 322 320 313 300 290 285 280 278 280 283 286 291 299 305 301 288 271 255 244 239 237 237 239 237 230 228 230 230 228 229 230 225 219 220 220 214 211 214 213 210 205 200 197 197 204 212 216 216 215 214 213 211 208 207 205
305 313 320 325 329 332 334 336 338 340 339 338 338 337 336 334 334 334 334 335 335 334 334 334 333 335 337 335 331 328 323 318 310 299 290 284 279 278 280 283 285 290 297 303 302 289 271 256 245 239 239 240 240 237 231 228 228 227 227 228 227 220 217 219 216 213 214 215 212 208 203 200 199 198 204 211 215 216 215 215 214 212 209 208 207
309 317 322 328 331 333 335 338 340 341 340 339 339 338 336 335 335 335 335 336 336 335 334 335 335 337 340 339 335 332 325 316 308 298 290 284 278 275 279 282 283 287 294 301 304 297 280 263 250 241 239 240 239 234 228 224 224 225 226 227 225 221 219 216 212 213 216 214 210 208 205 201 200 201 206 211 213 214 214 216 216 214 211 209 208
313 320 326 330 333 335 337 340 341 342 341 339 339 338 337 336 335 336 336 337 337 336 336 336 336 338 342 343 340 337 331 320 310 300 291 285 277 273 277 280 280 283 291 299 303 301 291 274 257 245 241 240 238 234 228 223 223 225 226 227 226 223 219 212 209 213 215 210 208 208 205 202 200 203 207 210 212 212 213 214 216 217 214 211 212
316 323 329 333 335 338 340 342 343 343 341 340 339 339 338 336 336 336 337 337 338 337 338 338 338 340 344 345 344 343 339 329 315 303 294 287 279 273 275 279 279 279 286 295 298 297 296 286 265 249 245 243 240 237 231 226 225 226 227 227 226 222 215 210 210 213 211 207 206 207 205 201 200 202 205 209 212 211 211 213 216 216 213 213 218
319 327 332 335 338 341 342 343 344 344 342 340 339 340 339 337 336 337 337 338 338 338 339 340 340 343 346 347 346 346 346 339 324 308 298 290 282 275 273 276 277 275 280 290 294 290 289 289 274 254 247 245 241 240 235 230 227 227 228 228 225 220 214 210 211 212 208 205 205 205 202 199 199 202 206 209 209 208 208 210 212 210 208 211 217
322 329 334 337 341 343 343 345 345 344 342 341 340 340 340 338 337 337 338 338 338 338 340 342 343 345 347 348 348 347 347 345 333 314 301 293 286 278 272 272 274 273 275 283 288 284 281 282 276 260 251 246 243 241 239 234 229 228 229 228 224 219 214 212 214 212 206 203 202 202 200 198 200 204 206 205 203 203 204 207 208 207 207 212 216
324 331 336 340 343 344 345 346 346 344 343 341 340 341 340 339 338 337 338 338 338 339 341 343 345 347 347 349 350 348 347 347 341 325 307 296 290 281 274 271 273 274 276 279 282 280 278 277 272 262 253 248 244 241 240 237 232 228 228 227 223 218 215 216 217 211 204 201 199 199 199 198 201 206 208 206 204 202 201 201 203 205 207 209 211
325 332 337 342 344 345 345 346 346 345 344 342 341 341 341 340 339 338 338 339 339 340 342 344 346 348 348 349 351 350 349 349 346 336 319 304 294 284 274 271 273 277 280 281 281 280 278 276 270 261 252 248 246 242 240 237 232 228 226 225 221 218 217 218 216 210 204 200 198 196 196 198 202 207 209 208 205 201 198 198 200 204 205 205 205
326 333 339 343 345 345 345 346 346 345 344 342 341 341 341 341 341 339 339 340 340 342 344 345 347 349 349 349 350 351 352 353 350 344 335 322 307 291 277 270 271 277 283 287 286 283 281 278 270 256 246 244 245 245 242 237 231 226 224 222 219 217 217 216 213 209 205 201 197 194 194 198 203 205 205 203 200 198 197 198 200 202 204 204 204
327 335 340 344 345 344 344 346 346 345 344 342 341 342 342 342 342 341 341 341 341 343 345 346 347 349 350 350 350 350 352 355 357 352 345 335 322 305 289 275 270 272 279 289 293 290 285 283 278 265 250 244 245 245 242 235 229 225 223 220 218 216 215 213 211 209 207 204 199 194 193 198 203 205 204 203 201 198 196 196 196 199 202 203 204
329 336 341 344 345 344 344 345 346 345 345 343 343 343 343 343 343 342 342 343 342 343 346 347 348 349 350 351 351 350 349 354 358 357 351 344 332 315 299 285 274 268 271 283 292 290 279 273 272 267 252 242 242 242 238 232 228 224 220 216 215 216 213 211 210 209 208 208 203 196 193 196 200 202 204 204 203 200 197 196 195 197 201 204 205
330 337 341 344 344 343 344 345 345 345 345 343 343 343 344 343 343 343 344 344 343 343 345 348 349 349 349 350 351 350 349 352 356 359 357 353 343 324 303 289 278 268 265 273 284 289 280 262 253 245 232 228 232 234 232 228 225 223 219 214 213 215 212 209 210 209 209 209 205 198 195 196 197 199 202 201 200 199 198 196 197 199 201 204 206
330 337 341 343 342 342 343 344 345 345 344 343 342 342 342 342 342 342 344 345 344 343 344 347 349 349 349 351 351 350 350 352 356 358 359 358 355 341 316 293 279 269 265 268 276 286 291 277 252 235 221 219 225 228 227 225 223 221 217 212 213 216 212 209 210 210 210 210 206 200 198 197 195 197 201 200 198 199 198 197 198 200 200 201 204
331 337 340 341 341 342 343 344 345 345 343 342 342 341 340 340 340 341 343 345 346 345 344 345 348 349 350 352 351 350 350 353 356 357 358 359 359 354 337 304 278 264 260 264 272 282 293 294 271 243 222 213 216 220 223 223 221 219 216 212 213 216 214 209 209 210 210 210 206 202 200 199 196 197 200 200 198 200 201 199 199 202 201 200 201
331 336 339 339 340 341 342 343 344 343 343 342 341 340 339 338 339 340 341 342 345 346 345 346 348 349 351 352 350 349 353 356 357 357 357 356 357 357 352 333 303 272 256 256 264 277 289 292 280 253 226 213 211 214 219 221 221 218 215 213 214 217 216 210 208 208 209 210 208 204 201 199 199 200 202 202 201 202 204 203 204 206 205 202 202
331 335 337 337 338 340 342 343 343 342 342 342 341 339 338 338 338 339 340 341 343 345 346 347 348 349 351 351 350 350 356 360 359 357 355 353 353 354 353 343 324 294 266 258 258 269 283 284 273 252 229 218 215 215 217 220 221 218 215 214 216 218 217 210 207 208 209 210 209 206 202 200 200 200 201 203 204 204 205 206 208 208 207 205 205
329 333 334 335 337 339 340 341 341 341 341 341 340 339 338 338 338 338 339 341 342 343 345 346 347 349 350 351 351 354 359 2 1 358 355 352 349 350 352 349 336 312 286 270 262 262 272 278 269 251 232 221 219 220 220 221 221 219 216 215 218 220 217 210 207 209 210 210 211 209 205 202 201 201 202 206 209 208 206 206 207 207 207 207 207
328 331 332 334 336 337 339 340 340 340 340 340 339 339 339 339 339 338 339 340 341 342 343 345 346 347 348 350 352 356 1 3 1 357 356 355 352 352 354 356 351 336 311 286 270 261 262 270 272 261 243 228 223 224 226 226 224 221 219 218 220 223 220 212 208 209 211 212 212 212 209 205 203 201 201 204 206 205 204 206 208 208 208 207 207
325 328 330 332 334 335 337 338 338 338 339 339 339 339 339 339 339 339 339 339 340 341 342 343 344 345 347 349 352 355 360 1 358 357 360 2 1 359 358 357 353 347 334 308 283 267 258 259 264 266 258 245 231 227 230 231 230 227 224 222 223 225 225 217 211 209 211 213 214 214 213 210 208 203 199 198 199 201 203 206 209 208 207 206 207
321 325 328 330 332 334 335 335 336 337 337 338 338 338 339 340 340 339 339 339 340 341 342 343 344 346 347 348 351 354 357 358 359 0 3 5 6 7 5 1 356 350 344 333 309 281 264 254 250 254 260 258 246 235 232 233 234 233 230 227 226 227 229 226 217 211 211 213 215 216 215 213 211 207 200 197 201 205 207 208 209 210 209 207 207
317 321 324 327 330 332 333 333 334 335 336 337 338 338 339 340 340 340 340 340 341 341 342 343 345 346 348 349 351 354 356 358 359 1 3 5 8 11 11 10 7 358 349 343 332 306 279 260 250 247 251 256 254 245 237 234 234 235 235 233 230 228 228 228 225 218 213 212 214 217 218 216 214 211 205 203 205 208 210 211 212 212 211 209 208
313 318 321 325 328 330 330 330 332 333 335 336 337 338 340 341 341 340 341 342 342 342 342 343 345 347 349 350 352 354 356 357 359 1 2 5 9 11 11 13 16 11 2 355 348 334 308 279 261 251 248 249 251 249 243 237 234 234 237 237 234 230 228 228 228 226 220 214 213 216 219 219 218 215 211 207 207 208 211 213 214 213 211 210 210
310 315 320 324 326 326 327 328 330 332 334 335 337 339 340 341 341 342 342 343 343 343 343 343 345 347 349 350 352 354 355 356 358 2 4 6 9 11 11 13 17 18 14 8 3 357 344 318 287 267 257 252 250 248 245 240 236 234 236 237 236 232 229 227 229 229 225 219 216 217 218 219 220 218 214 209 208 209 210 212 214 213 211 209 211
308 313 318 321 323 324 326 327 328 331 332 334 337 339 340 341 342 343 343 344 344 344 343 343 345 347 349 350 352 353 354 355 358 2 6 8 10 12 13 14 16 19 18 15 12 9 2 348 328 301 279 266 258 252 247 242 237 235 235 236 237 234 230 227 228 230 227 222 221 221 219 218 220 219 216 213 211 211 211 211 212 213 212 211 211
308 313 316 319 321 322 324 326 328 329 331 333 336 339 340 341 343 343 344 345 344 344 344 344 345 347 349 350 352 353 354 357 360 3 6 9 11 13 15 15 15 18 19 18 18 17 11 0 349 336 315 291 273 261 252 244 239 236 235 236 236 235 230 227 228 233 231 224 222 223 221 218 218 218 218 216 215 214 213 212 211 212 212 212 212
308 312 314 317 319 321 323 325 327 328 330 333 336 338 341 343 344 345 345 345 345 345 345 345 346 348 349 350 353 355 356 359 2 4 7 10 12 14 16 16 15 17 19 20 20 21 19 10 359 351 342 321 289 267 255 248 241 236 237 237 236 234 230 227 229 236 236 225 221 222 223 219 217 217 217 217 217 215 213 210 209 210 212 213 214
308 310 312 315 318 320 323 325 326 328 331 334 336 339 342 343 344 345 346 346 347 347 346 346 347 349 350 352 354 357 359 1 3 6 8 10 13 15 17 16 15 17 19 19 20 22 23 19 10 2 358 352 330 285 257 248 242 237 236 237 236 233 229 227 230 238 239 227 219 220 221 220 217 216 216 217 217 216 213 211 210 211 212 213 216
307 308 311 314 318 320 323 325 326 328 331 334 336 340 342 343 344 346 347 347 349 349 348 347 348 350 352 354 355 358 1 4 5 7 9 11 13 15 17 18 17 18 20 20 20 21 25 25 19 11 6 3 354 332 283 251 242 237 234 233 232 231 228 227 232 240 241 231 222 219 219 219 218 217 216 216 218 218 217 215 216 216 214 214 216
305 308 311 315 318 320 322 324 325 328 331 334 337 340 342 342 344 346 347 349 351 350 349 348 350 352 355 357 357 1 5 7 8 9 10 11 13 15 17 18 19 19 21 22 22 21 25 28 25 20 15 12 8 354 329 282 250 240 233 229 229 230 230 231 237 242 242 236 230 224 221 221 221 220 218 218 219 220 220 219 219 220 219 217 216
305 308 312 315 318 320 322 323 325 328 331 334 337 340 341 342 343 345 347 349 351 352 351 350 351 355 359 0 1 5 8 10 11 12 12 13 15 17 17 18 19 19 20 23 24 23 24 28 30 26 21 21 25 20 2 335 283 252 238 227 224 226 229 233 238 242 241 239 237 232 228 227 226 225 223 222 222 222 221 221 221 222 222 220 219
306 309 313 316 319 320 321 323 326 328 331 334 336 339 341 342 343 344 346 348 351 353 353 352 353 358 3 5 6 9 12 14 15 15 15 16 17 18 19 19 19 18 20 24 26 25 25 27 31 30 25 25 31 34 29 21 10 320 262 229 216 219 225 230 234 236 236 235 235 235 233 231 230 228 226 225 225 225 224 224 223 224 224 224 224
307 311 314 316 318 320 321 323 326 329 331 333 336 339 341 342 342 343 345 348 351 354 354 353 355 1 7 10 11 12 15 18 19 19 18 19 19 19 20 21 20 20 21 24 26 26 25 26 29 30 28 26 31 36 36 35 34 28 11 334 238 216 218 224 227 229 229 229 229 230 230 230 229 228 227 226 226 226 226 226 225 224 224 225 226
Height
2970 2968 2966 2963 2961 2958 2955 2953 2950 2947 2945 2942 2939 2935 2931 2927 2923 2918 2913 2908 2903 2899 2895 2891 2886 2882 2877 2873 2869 2865 2860 2856 2852 2848 2844 2841 2837 2833 2829 2825 2820 2817 2815 2813 2813 2813 2812 2812 2814 2818 2823 2825 2826 2828 2830 2833 2835 2838 2839 2842 2845 2848 2851 2853 2852 2855 2863 2872 2877 2879 2883 2887 2893 2901 2909 2916 2924 2930 2934 2934 2935 2941 2947 2951 2956
2966 2963 2961 2958 2955 2953 2950 2948 2945 2942 2940 2937 2933 2930 2926 2922 2917 2911 2906 2901 2896 2892 2888 2883 2878 2874 2869 2865 2861 2857 2853 2849 2845 2840 2836 2832 2829 2825 2820 2816 2812 2809 2806 2805 2805 2805 2804 2804 2807 2812 2816 2818 2821 2823 2824 2826 2829 2831 2834 2836 2839 2842 2846 2849 2850 2851 2856 2866 2872 2873 2876 2880 2885 2894 2902 2909 2917 2925 2928 2928 2931 2938 2945 2950 2955
2961 2959 2956 2954 2950 2948 2945 2943 2940 2937 2934 2931 2928 2924 2920 2916 2910 2905 2899 2895 2890 2885 2880 2876 2871 2866 2862 2858 2853 2849 2845 2841 2837 2833 2828 2824 2820 2816 2812 2807 2803 2800 2799 2798 2797 2796 2796 2797 2799 2805 2809 2811 2814 2817 2818 2820 2823 2825 2828 2831 2833 2837 2841 2844 2846 2847 2850 2859 2866 2868 2869 2873 2878 2886 2895 2903 2911 2918 2922 2924 2928 2935 2941 2947 2952
2957 2954 2952 2949 2946 2943 2940 2938 2935 2932 2929 2926 2922 2918 2913 2908 2903 2898 2893 2887 2883 2878 2873 2868 2864 2859 2854 2850 2846 2841 2837 2833 2830 2825 2821 2816 2811 2807 2803 2799 2795 2793 2792 2791 2790 2788 2789 2790 2792 2797 2801 2804 2807 2811 2813 2815 2817 2820 2822 2825 2827 2831 2836 2839 2841 2843 2845 2851 2859 2862 2864 2868 2873 2880 2889 2898 2905 2910 2916 2920 2925 2932 2938 2944 2950
2952 2949 2947 2944 2941 2938 2935 2933 2930 2926 2923 2919 2916 2911 2906 2901 2896 2891 2886 2880 2875 2870 2865 2860 2856 2851 2847 2842 2838 2834 2830 2826 2822 2818 2813 2808 2803 2798 2794 2790 2788 2786 2785 2784 2783 2782 2782 2783 2786 2789 2794 2797 2800 2805 2808 2810 2812 2815 2817 2819 2821 2825 2830 2833 2835 2838 2840 2844 2851 2857 2859 2863 2868 2876 2884 2891 2898 2904 2911 2916 2923 2930 2936 2942 2947
2947 2945 2942 2939 2936 2933 2930 2928 2924 2921 2918 2913 2909 2904 2899 2894 2889 2884 2878 2873 2868 2863 2858 2853 2848 2843 2840 2835 2831 2827 2823 2818 2814 2810 2805 2799 2794 2789 2785 2782 2780 2779 2778 2778 2777 2776 2775 2777 2780 2783 2786 2790 2794 2798 2802 2804 2806 2809 2812 2814 2816 2819 2822 2826 2829 2833 2835 2837 2844 2850 2853 2857 2864 2872 2880 2885 2891 2898 2904 2911 2919 2925 2931 2937 2942
2943 2940 2937 2934 2931 2928 2926 2923 2919 2916 2912 2907 2902 2897 2892 2887 2882 2877 2871 2866 2861 2855 2850 2845 2840 2836 2832 2828 2824 2820 2816 2811 2806 2801 2797 2791 2785 2780 2777 2774 2773 2773 2772 2772 2771 2770 2770 2772 2774 2777 2780 2784 2788 2792 2796 2799 2801 2804 2807 2810 2812 2814 2816 2819 2823 2827 2830 2832 2838 2844 2847 2852 2859 2869 2877 2882 2887 2893 2898 2904 2911 2918 2925 2931 2936
2938 2936 2932 2929 2926 2924 2921 2918 2914 2911 2906 2901 2896 2891 2886 2881 2875 2870 2865 2859 2854 2848 2842 2838 2833 2829 2825 2820 2817 2812 2808 2803 2798 2793 2788 2782 2777 2772 2770 2767 2766 2766 2766 2765 2765 2764 2764 2766 2767 2770 2774 2777 2781 2786 2790 2794 2796 2799 2802 2805 2808 2809 2811 2814 2817 2821 2824 2827 2833 2839 2843 2846 2852 2863 2874 2877 2880 2886 2893 2899 2904 2910 2918 2925 2930
2934 2931 2927 2925 2922 2919 2917 2914 2910 2906 2900 2896 2891 2886 2880 2875 2869 2864 2858 2852 2847 2841 2836 2831 2826 2822 2818 2813 2809 2805 2800 2796 2790 2785 2779 2774 2769 2765 2763 2761 2760 2760 2759 2758 2758 2758 2758 2759 2761 2764 2767 2771 2775 2779 2784 2788 2791 2793 2796 2800 2803 2805 2806 2809 2812 2816 2818 2821 2827 2833 2838 2841 2845 2856 2866 2870 2872 2880 2889 2896 2901 2907 2914 2920 2926
2929 2926 2923 2920 2918 2915 2913 2909 2905 2901 2896 2891 2885 2880 2874 2869 2863 2857 2851 2845 2839 2834 2830 2825 2819 2815 2811 2806 2801 2796 2792 2787 2782 2776 2770 2765 2761 2757 2756 2755 2754 2753 2752 2751 2751 2751 2752 2752 2754 2757 2760 2764 2768 2772 2776 2781 2784 2787 2791 2795 2798 2799 2800 2804 2807 2811 2813 2816 2821 2827 2833 2837 2841 2849 2859 2865 2870 2877 2883 2889 2895 2902 2909 2914 2920
2923 2921 2918 2916 2913 2911 2908 2905 2901 2896 2891 2885 2880 2874 2868 2862 2856 2850 2844 2839 2833 2828 2823 2818 2813 2808 2803 2799 2794 2789 2784 2778 2773 2768 2762 2757 2754 2751 2749 2748 2747 2747 2746 2744 2743 2743 2744 2745 2747 2750 2753 2757 2761 2765 2769 2774 2778 2781 2785 2788 2792 2793 2795 2798 2801 2805 2808 2811 2816 2822 2827 2833 2837 2844 2854 2861 2866 2872 2877 2883 2889 2895 2901 2906 2913
2918 2916 2914 2911 2909 2906 2903 2900 2895 2891 2885 2879 2873 2867 2861 2855 2849 2843 2838 2833 2828 2822 2817 2812 2807 2802 2796 2791 2786 2780 2775 2770 2764 2759 2754 2751 2748 2745 2742 2741 2740 2739 2738 2737 2735 2734 2735 2737 2739 2742 2746 2750 2753 2757 2762 2767 2770 2775 2778 2782 2786 2787 2789 2792 2795 2799 2802 2806 2811 2816 2822 2828 2833 2840 2848 2855 2860 2866 2872 2878 2884 2890 2896 2901 2906
2914 2911 2909 2907 2905 2902 2898 2894 2890 2885 2879 2873 2867 2861 2855 2849 2842 2837 2832 2827 2822 2817 2812 2806 2800 2794 2789 2783 2777 2772 2767 2762 2756 2751 2747 2744 2742 2739 2736 2734 2733 2732 2731 2730 2728 2726 2727 2729 2732 2735 2738 2742 2746 2750 2755 2759 2763 2768 2772 2775 2778 2781 2783 2787 2789 2793 2796 2801 2805 2811 2817 2824 2829 2834 2843 2850 2855 2860 2867 2873 2880 2887 2891 2896 2901
2909 2907 2905 2903 2900 2897 2893 2889 2884 2879 2873 2867 2861 2855 2849 2842 2836 2831 2826 2821 2816 2811 2806 2800 2794 2787 2782 2776 2770 2764 2760 2754 2748 2743 2740 2738 2736 2733 2731 2729 2727 2726 2724 2723 2721 2718 2718 2721 2724 2728 2731 2735 2738 2742 2748 2752 2756 2760 2764 2767 2771 2774 2777 2781 2784 2787 2791 2795 2801 2806 2812 2817 2823 2831 2840 2846 2850 2855 2861 2868 2875 2882 2889 2894 2900
2904 2902 2900 2898 2895 2892 2888 2883 2878 2873 2867 2861 2855 2849 2843 2837 2831 2826 2821 2816 2811 2805 2799 2794 2788 2781 2775 2769 2762 2757 2753 2748 2741 2737 2734 2732 2730 2728 2725 2723 2722 2720 2718 2716 2714 2711 2711 2714 2717 2721 2725 2728 2732 2736 2740 2744 2749 2752 2756 2759 2764 2767 2771 2774 2778 2781 2785 2790 2796 2801 2805 2809 2816 2828 2837 2841 2846 2852 2858 2865 2872 2878 2886 2893 2899
2900 2898 2896 2894 2891 2887 2883 2878 2873 2868 2862 2856 2849 2843 2837 2831 2826 2821 2816 2811 2805 2800 2794 2788 2783 2776 2769 2762 2755 2750 2746 2741 2735 2730 2728 2726 2724 2722 2720 2718 2716 2714 2712 2711 2708 2706 2706 2708 2711 2715 2719 2722 2726 2730 2734 2738 2741 2744 2747 2752 2757 2760 2764 2768 2772 2775 2779 2785 2790 2794 2797 2801 2809 2822 2833 2836 2842 2850 2858 2863 2867 2872 2880 2888 2894
2895 2894 2892 2889 2886 2882 2877 2873 2868 2862 2856 2850 2844 2838 2832 2826 2822 2816 2811 2806 2801 2795 2790 2784 2778 2771 2764 2757 2749 2743 2739 2736 2730 2725 2723 2721 2719 2716 2714 2713 2711 2709 2707 2706 2703 2701 2702 2704 2706 2709 2713 2717 2721 2725 2729 2732 2734 2736 2740 2746 2750 2753 2757 2761 2765 2768 2773 2778 2783 2786 2791 2795 2802 2814 2826 2832 2837 2844 2849 2852 2858 2866 2875 2882 2888
2891 2890 2888 2885 2881 2877 2872 2868 2863 2857 2850 2844 2838 2832 2827 2822 2817 2812 2807 2802 2797 2791 2786 2781 2775 2768 2760 2752 2743 2736 2732 2729 2724 2720 2718 2716 2714 2712 2709 2708 2706 2704 2702 2701 2699 2697 2698 2700 2702 2705 2708 2713 2717 2720 2723 2725 2727 2730 2735 2740 2743 2746 2750 2755 2758 2762 2766 2771 2775 2779 2784 2790 2796 2805 2817 2826 2831 2836 2840 2845 2853 2861 2868 2875 2882
2888 2886 2884 2880 2876 2872 2868 2863 2858 2851 2845 2839 2833 2827 2822 2818 2813 2808 2802 2797 2792 2787 2782 2777 2772 2765 2757 2748 2739 2731 2725 2722 2719 2716 2713 2711 2709 2707 2704 2703 2701 2699 2698 2696 2694 2693 2694 2696 2699 2701 2704 2708 2712 2714 2718 2720 2722 2726 2730 2734 2736 2739 2744 2749 2753 2756 2760 2763 2767 2773 2779 2786 2792 2799 2809 2818 2824 2830 2836 2842 2849 2855 2861 2869 2877
2884 2882 2880 2876 2872 2868 2864 2858 2852 2846 2840 2834 2828 2823 2818 2814 2809 2804 2799 2794 2789 2783 2778 2773 2768 2761 2754 2745 2736 2727 2720 2716 2713 2710 2709 2707 2705 2702 2700 2698 2697 2696 2694 2692 2690 2690 2691 2692 2695 2698 2700 2703 2706 2709 2712 2715 2718 2721 2725 2728 2729 2733 2739 2744 2747 2751 2754 2757 2761 2767 2774 2782 2788 2794 2803 2811 2817 2824 2832 2838 2844 2850 2857 2864 2871
2880 2879 2876 2872 2868 2864 2859 2854 2847 2841 2836 2830 2825 2819 2814 2810 2805 2801 2796 2791 2786 2780 2775 2770 2764 2758 2751 2743 2734 2725 2717 2712 2708 2706 2704 2703 2701 2698 2696 2695 2693 2692 2690 2689 2688 2687 2688 2690 2693 2695 2697 2699 2702 2703 2706 2710 2713 2716 2720 2722 2725 2729 2734 2738 2741 2746 2748 2751 2756 2762 2768 2776 2782 2789 2796 2804 2810 2818 2825 2832 2839 2846 2854 2860 2866
2877 2875 2872 2868 2864 2860 2855 2849 2843 2838 2832 2826 2822 2816 2811 2806 2801 2797 2793 2787 2783 2778 2772 2767 2761 2755 2748 2740 2732 2724 2716 2709 2705 2702 2700 2698 2697 2695 2693 2691 2690 2688 2685 2685 2685 2685 2686 2687 2690 2693 2694 2695 2697 2699 2702 2706 2710 2712 2715 2717 2720 2724 2728 2732 2736 2739 2741 2744 2750 2756 2762 2769 2776 2783 2791 2798 2805 2813 2820 2828 2835 2843 2851 2858 2864
2873 2871 2868 2864 2860 2856 2850 2845 2839 2834 2828 2823 2818 2813 2808 2803 2798 2794 2789 2784 2779 2775 2769 2763 2757 2751 2744 2737 2730 2722 2714 2707 2702 2699 2696 2694 2693 2691 2690 2688 2687 2684 2682 2682 2682 2683 2683 2684 2686 2689 2691 2692 2694 2696 2698 2702 2705 2707 2710 2712 2715 2719 2723 2727 2731 2734 2736 2739 2744 2750 2756 2763 2770 2778 2786 2793 2801 2809 2816 2823 2831 2839 2848 2857 2865
2869 2867 2864 2860 2856 2851 2846 2841 2836 2831 2826 2821 2815 2810 2805 2800 2795 2791 2786 2781 2776 2771 2766 2760 2753 2746 2739 2733 2727 2720 2713 2706 2700 2696 2693 2690 2689 2687 2686 2685 2684 2681 2679 2678 2679 2680 2681 2681 2683 2685 2687 2689 2691 2693 2694 2697 2700 2703 2705 2708 2711 2715 2719 2723 2727 2729 2731 2734 2739 2745 2752 2758 2765 2774 2782 2789 2797 2806 2813 2820 2829 2837 2846 2853 2858
2865 2863 2860 2856 2852 2847 2842 2837 2833 2828 2823 2817 2812 2807 2802 2797 2792 2788 2783 2778 2772 2767 2762 2756 2750 2743 2736 2730 2724 2718 2711 2704 2698 2694 2690 2687 2685 2683 2682 2681 2680 2678 2676 2676 2677 2677 2678 2678 2680 2682 2684 2687 2689 2690 2692 2694 2696 2699 2702 2705 2709 2713 2717 2720 2724 2725 2727 2731 2736 2742 2748 2756 2763 2771 2779 2786 2794 2801 2808 2815 2824 2833 2840 2845 2849
2861 2858 2855 2852 2848 2843 2838 2834 2830 2825 2820 2815 2809 2804 2800 2795 2790 2785 2780 2775 2770 2764 2759 2753 2747 2741 2735 2729 2723 2716 2709 2702 2696 2691 2687 2684 2682 2680 2678 2677 2677 2675 2673 2673 2674 2674 2675 2676 2676 2678 2682 2685 2687 2689 2691 2692 2694 2697 2700 2703 2706 2710 2715 2718 2721 2723 2725 2728 2733 2739 2746 2754 2762 2769 2776 2783 2789 2795 2802 2809 2817 2825 2832 2838 2845
2857 2854 2851 2847 2843 2839 2835 2831 2827 2822 2818 2813 2807 2802 2797 2793 2788 2783 2778 2773 2767 2761 2755 2749 2744 2738 2732 2726 2721 2715 2707 2699 2693 2688 2685 2681 2679 2677 2675 2674 2674 2673 2671 2671 2671 2671 2673 2674 2674 2676 2679 2682 2685 2687 2690 2692 2693 2695 2697 2700 2704 2708 2712 2715 2718 2720 2722 2725 2730 2736 2744 2752 2759 2764 2771 2778 2784 2791 2798 2805 2813 2820 2827 2833 2840
2853 2850 2847 2843 2839 2836 2832 2829 2824 2820 2814 2810 2806 2801 2795 2790 2785 2780 2775 2770 2764 2758 2752 2746 2741 2735 2728 2722 2716 2712 2706 2698 2691 2686 2682 2679 2676 2674 2673 2672 2671 2670 2670 2669 2669 2669 2670 2672 2672 2674 2676 2679 2682 2684 2687 2689 2691 2693 2695 2698 2702 2706 2709 2712 2714 2716 2719 2722 2727 2732 2739 2746 2753 2760 2767 2775 2781 2788 2795 2802 2809 2816 2822 2828 2835
2848 2846 2842 2839 2835 2832 2829 2826 2822 2818 2812 2806 2802 2797 2793 2789 2784 2779 2774 2768 2762 2756 2750 2744 2738 2732 2727 2720 2713 2706 2702 2697 2691 2686 2682 2678 2675 2672 2671 2670 2669 2669 2669 2668 2667 2667 2668 2670 2671 2672 2673 2676 2678 2680 2682 2685 2687 2690 2693 2696 2700 2703 2706 2708 2710 2713 2717 2720 2724 2728 2734 2742 2749 2757 2764 2770 2777 2785 2792 2799 2806 2813 2818 2824 2830
2844 2841 2838 2835 2832 2829 2827 2823 2819 2816 2811 2805 2799 2794 2790 2786 2782 2779 2774 2768 2761 2756 2750 2744 2737 2731 2727 2722 2716 2708 2700 2695 2691 2688 2684 2679 2675 2671 2669 2668 2668 2668 2668 2667 2666 2666 2667 2668 2670 2671 2671 2672 2674 2676 2678 2680 2683 2686 2689 2693 2697 2700 2702 2704 2707 2711 2714 2718 2723 2728 2733 2738 2745 2753 2761 2767 2774 2781 2788 2796 2802 2808 2813 2819 2825
2840 2837 2834 2831 2829 2827 2824 2820 2817 2813 2808 2804 2799 2794 2789 2785 2781 2777 2773 2768 2762 2756 2750 2745 2740 2733 2727 2722 2718 2712 2705 2698 2693 2689 2685 2681 2676 2672 2669 2668 2667 2667 2667 2666 2666 2665 2665 2666 2667 2668 2669 2670 2671 2673 2675 2677 2680 2682 2685 2689 2693 2696 2699 2701 2704 2708 2712 2716 2721 2725 2730 2735 2741 2749 2757 2764 2771 2776 2783 2791 2797 2803 2809 2814 2820
2835 2833 2830 2828 2826 2824 2821 2818 2814 2810 2805 2801 2797 2793 2790 2786 2781 2777 2772 2768 2762 2756 2750 2745 2741 2735 2729 2723 2717 2712 2706 2700 2694 2689 2684 2680 2676 2672 2669 2667 2667 2666 2666 2665 2665 2664 2664 2664 2665 2666 2667 2668 2670 2671 2673 2675 2678 2681 2684 2687 2690 2693 2696 2699 2702 2706 2711 2714 2718 2722 2727 2732 2739 2746 2754 2761 2767 2772 2778 2785 2791 2797 2804 2811 2816
2831 2828 2826 2824 2823 2821 2818 2815 2811 2807 2804 2800 2795 2791 2788 2785 2781 2777 2772 2768 2763 2757 2751 2745 2740 2735 2729 2723 2718 2713 2706 2699 2693 2688 2683 2679 2676 2672 2669 2667 2666 2666 2665 2664 2664 2663 2663 2664 2664 2664 2666 2667 2668 2671 2673 2675 2677 2680 2682 2685 2688 2691 2693 2696 2700 2704 2708 2712 2717 2721 2725 2731 2737 2743 2750 2758 2764 2769 2774 2780 2786 2792 2799 2806 2811
2826 2824 2823 2821 2819 2817 2814 2812 2809 2805 2801 2797 2793 2789 2785 2782 2778 2775 2771 2767 2763 2758 2752 2746 2740 2735 2729 2724 2719 2715 2708 2699 2693 2687 2683 2679 2675 2672 2669 2667 2666 2666 2665 2664 2663 2663 2663 2663 2664 2664 2665 2666 2667 2669 2672 2674 2676 2678 2681 2684 2686 2689 2691 2694 2697 2701 2706 2710 2714 2718 2723 2728 2734 2740 2746 2754 2760 2766 2772 2778 2784 2789 2795 2801 2806
2822 2821 2819 2818 2816 2814 2811 2809 2806 2802 2799 2795 2791 2787 2784 2779 2775 2772 2768 2764 2760 2756 2751 2746 2741 2735 2730 2725 2721 2716 2709 2701 2694 2689 2684 2679 2676 2674 2671 2668 2666 2665 2665 2664 2663 2663 2663 2664 2664 2664 2665 2666 2667 2668 2670 2673 2675 2677 2680 2683 2686 2688 2690 2692 2696 2699 2703 2707 2711 2716 2721 2726 2731 2737 2743 2750 2756 2762 2768 2774 2780 2786 2792 2797 2801
2819 2817 2816 2814 2812 2810 2808 2806 2803 2800 2796 2793 2789 2786 2782 2778 2773 2769 2765 2762 2757 2753 2750 2746 2741 2737 2732 2727 2722 2716 2709 2703 2697 2691 2687 2682 2678 2675 2672 2669 2666 2665 2665 2664 2664 2664 2664 2664 2664 2665 2665 2666 2667 2668 2670 2672 2674 2676 2679 2682 2685 2687 2689 2692 2695 2698 2702 2705 2709 2714 2718 2723 2728 2734 2740 2746 2752 2759 2766 2771 2777 2783 2789 2793 2798
2815 2813 2812 2810 2809 2807 2805 2802 2800 2797 2794 2791 2787 2784 2780 2776 2772 2767 2764 2760 2756 2752 2748 2744 2741 2737 2733 2728 2723 2717 2711 2706 2701 2697 2693 2687 2681 2676 2671 2668 2667 2665 2664 2664 2664 2664 2664 2665 2665 2665 2666 2667 2668 2669 2670 2671 2674 2676 2678 2681 2684 2686 2688 2691 2693 2696 2700 2703 2707 2711 2715 2720 2725 2731 2736 2742 2749 2756 2763 2769 2775 2780 2785 2790 2794
2811 2810 2808 2807 2805 2803 2801 2799 2797 2794 2791 2788 2785 2782 2778 2774 2770 2766 2762 2758 2754 2751 2747 2742 2739 2735 2731 2727 2722 2718 2713 2710 2706 2701 2695 2688 2682 2677 2672 2669 2667 2666 2664 2664 2664 2663 2664 2664 2665 2666 2667 2668 2669 2670 2670 2672 2673 2675 2678 2681 2683 2685 2687 2689 2692 2694 2697 2700 2704 2708 2712 2717 2721 2727 2733 2739 2745 2752 2759 2765 2771 2776 2780 2785 2789
2808 2806 2805 2803 2802 2800 2798 2796 2794 2792 2789 2786 2783 2780 2776 2772 2768 2764 2760 2757 2753 2749 2745 2741 2737 2733 2729 2725 2721 2716 2712 2708 2704 2699 2693 2688 2683 2679 2675 2671 2669 2666 2665 2664 2663 2663 2663 2664 2664 2666 2667 2668 2669 2670 2671 2671 2673 2675 2677 2680 2682 2684 2686 2688 2691 2693 2695 2697 2701 2704 2709 2714 2718 2723 2729 2735 2742 2748 2754 2760 2766 2771 2775 2780 2784
2805 2803 2801 2800 2798 2796 2795 2793 2791 2789 2786 2783 2780 2777 2774 2770 2766 2762 2759 2755 2751 2747 2744 2740 2736 2732 2727 2723 2719 2715 2711 2706 2702 2698 2694 2690 2685 2681 2678 2674 2670 2668 2666 2664 2663 2663 2663 2663 2663 2665 2666 2667 2668 2670 2670 2671 2672 2674 2676 2678 2680 2682 2684 2686 2689 2691 2693 2695 2698 2702 2706 2711 2715 2720 2725 2731 2738 2744 2750 2755 2760 2765 2770 2775 2780
2802 2800 2798 2797 2795 2793 2792 2790 2788 2786 2783 2781 2778 2775 2771 2768 2764 2761 2757 2753 2750 2746 2743 2739 2735 2732 2728 2723 2719 2715 2711 2707 2703 2699 2695 2691 2686 2683 2680 2676 2672 2670 2667 2665 2664 2663 2662 2662 2662 2663 2664 2665 2666 2668 2669 2669 2670 2672 2674 2676 2678 2680 2682 2683 2686 2689 2691 2693 2696 2699 2703 2708 2712 2716 2722 2727 2733 2740 2745 2751 2756 2760 2765 2770 2775
2798 2796 2795 2794 2792 2790 2789 2787 2785 2783 2781 2778 2775 2772 2769 2766 2762 2759 2756 2752 2749 2746 2742 2739 2736 2732 2729 2725 2721 2718 2714 2710 2706 2702 2698 2694 2690 2686 2682 2678 2674 2672 2669 2667 2665 2663 2662 2662 2661 2661 2662 2662 2664 2665 2666 2667 2668 2670 2672 2673 2675 2677 2679 2680 2683 2685 2688 2691 2694 2696 2700 2704 2709 2714 2719 2724 2729 2734 2740 2746 2751 2756 2760 2765 2770
2795 2793 2792 2790 2789 2788 2786 2784 2782 2780 2778 2775 2773 2770 2767 2764 2761 2757 2754 2751 2748 2745 2742 2739 2736 2733 2729 2726 2723 2719 2716 2712 2708 2704 2700 2697 2692 2688 2685 2681 2678 2675 2672 2669 2667 2665 2663 2662 2661 2660 2660 2660 2661 2662 2664 2665 2666 2667 2669 2671 2672 2674 2676 2678 2680 2683 2685 2688 2691 2694 2697 2700 2705 2710 2715 2719 2724 2730 2736 2741 2746 2751 2756 2761 2765
2791 2790 2789 2787 2786 2785 2784 2782 2780 2778 2776 2773 2771 2768 2765 2762 2759 2756 2753 2750 2747 2745 2742 2739 2736 2733 2730 2727 2724 2720 2717 2713 2710 2706 2702 2698 2695 2691 2687 2684 2681 2678 2676 2673 2670 2667 2665 2664 2662 2661 2660 2660 2660 2660 2661 2662 2663 2665 2666 2668 2669 2671 2673 2675 2678 2680 2683 2686 2688 2691 2694 2697 2701 2705 2710 2715 2720 2725 2730 2736 2741 2747 2751 2756 2760
2788 2787 2786 2785 2784 2783 2781 2779 2777 2775 2773 2771 2768 2765 2763 2760 2757 2755 2752 2749 2747 2744 2742 2739 2736 2733 2730 2727 2724 2721 2717 2714 2710 2707 2704 2700 2696 2693 2690 2687 2684 2681 2678 2676 2673 2670 2668 2666 2664 2662 2661 2660 2659 2659 2660 2660 2661 2662 2663 2665 2666 2668 2670 2673 2675 2678 2680 2683 2685 2688 2691 2694 2697 2701 2706 2710 2715 2720 2725 2731 2736 2741 2746 2751 2755
2785 2784 2783 2782 2781 2780 2778 2777 2775 2773 2771 2768 2766 2764 2761 2759 2756 2754 2751 2749 2746 2744 2741 2738 2736 2733 2730 2727 2724 2721 2718 2715 2711 2708 2705 2702 2698 2695 2692 2689 2686 2683 2680 2678 2676 2673 2670 2668 2666 2664 2662 2660 2660 2659 2659 2659 2659 2660 2661 2662 2663 2665 2667 2670 2673 2675 2678 2680 2682 2685 2688 2691 2694 2697 2701 2706 2710 2715 2720 2726 2731 2736 2741 2746 2751
2782 2781 2780 2780 2779 2777 2775 2774 2772 2770 2768 2766 2764 2762 2760 2757 2755 2753 2751 2748 2746 2743 2741 2739 2736 2733 2730 2728 2724 2721 2719 2716 2712 2710 2707 2704 2700 2697 2694 2691 2689 2686 2683 2681 2678 2675 2673 2670 2667 2665 2663 2661 2660 2660 2659 2658 2658 2658 2658 2659 2660 2662 2665 2667 2670 2673 2675 2677 2680 2682 2685 2688 2691 2694 2698 2701 2705 2710 2715 2720 2725 2730 2735 2741 2746
2779 2778 2778 2777 2776 2774 2773 2772 2770 2768 2766 2764 2762 2760 2758 2756 2754 2752 2750 2748 2746 2743 2741 2739 2736 2733 2731 2728 2725 2722 2720 2717 2714 2711 2708 2705 2703 2699 2696 2694 2691 2688 2685 2683 2680 2678 2675 2672 2669 2667 2664 2662 2661 2660 2659 2659 2658 2658 2657 2657 2658 2660 2662 2664 2667 2670 2672 2674 2677 2679 2682 2685 2688 2691 2694 2697 2701 2705 2710 2714 2719 2724 2729 2734 2739
2776 2775 2775 2774 2773 2771 2770 2769 2767 2765 2764 2762 2760 2758 2756 2755 2753 2752 2750 2748 2746 2743 2741 2739 2736 2734 2732 2729 2726 2724 2721 2718 2716 2713 2710 2707 2705 2701 2698 2696 2693 2690 2688 2685 2682 2679 2677 2674 2671 2669 2666 2664 2662 2661 2660 2660 2659 2658 2657 2657 2657 2658 2659 2662 2664 2667 2669 2672 2674 2677 2679 2682 2684 2687 2690 2693 2697 2701 2705 2709 2713 2718 2722 2727 2732
2773 2773 2772 2771 2770 2769 2768 2766 2765 2763 2761 2760 2758 2757 2755 2753 2752 2751 2749 2747 2745 2743 2741 2739 2737 2735 2733 2730 2728 2725 2723 2720 2718 2715 2712 2709 2706 2703 2701 2698 2696 2693 2690 2686 2683 2681 2679 2677 2674 2671 2669 2666 2664 2663 2662 2661 2660 2659 2658 2657 2657 2657 2658 2660 2662 2665 2667 2669 2672 2674 2677 2679 2681 2683 2686 2689 2693 2696 2700 2704 2708 2712 2717 2721 2726
2770 2770 2769 2768 2767 2766 2765 2764 2762 2761 2759 2758 2757 2755 2753 2752 2751 2750 2748 2747 2745 2743 2741 2740 2738 2736 2734 2731 2729 2726 2724 2721 2719 2716 2714 2711 2708 2706 2703 2700 2698 2695 2692 2689 2686 2684 2682 2679 2676 2674 2671 2669 2667 2665 2664 2663 2661 2660 2660 2659 2658 2658 2658 2659 2661 2664 2666 2668 2670 2673 2675 2677 2679 2681 2683 2686 2689 2692 2696 2699 2703 2707 2711 2715 2719